Location: Kouchibouguac National Park
(46.8081°N, 64.9088°W)
Time: 19:33:53
(UTC-03:00)

Amateur Radio Satellites - All Passes

Search period start: 23 May 2017 19:03
Search period end: 24 May 2017 19:03
Location: Kouchibouguac National Park, 46.8081°N, 64.9088°W

Satellite Date Start Highest point End Downlink Frequencies (MHz)
Time Altitude Azimuth
CUBESAT XI-V 23 May 19:07:50 19:11:48 28° 295° (WNW) 19:15:44 437.345
XW-2B 23 May 19:10:00 19:13:32 37° 263° (W) 19:17:08 145.730 - 145.750
AAUSAT CUBESAT 2 23 May 19:15:41 19:17:41 13° 60° (ENE) 19:19:43 437.432
XW-2C 23 May 19:23:53 19:27:07 26° 265° (W) 19:30:23 145.795 - 145.815
XW-2F 23 May 19:25:37 19:28:49 26° 265° (W) 19:32:04 145.980 - 146.000
XW-2A 23 May 19:27:11 19:30:19 38° 72° (ENE) 19:33:29 145.665 - 145.685
NUDT-PHONESAT 23 May 19:35:45 19:38:49 24° 266° (W) 19:41:54 437.300
SEEDS 23 May 19:38:26 19:42:27 42° 70° (ENE) 19:46:28 437.485
KAITUO 1B 23 May 19:39:27 19:42:26 22° 266° (W) 19:45:27 145.475/437.950
CUTE-I 23 May 19:43:42 19:48:16 29° 265° (W) 19:52:53 437.470
HO-68 23 May 19:44:20 19:51:31 87° 74° (ENE) 19:58:47 435.675
Oscar 11 23 May 19:50:43 19:52:48 13° 59° (ENE) 19:54:54 .
KKS-1 23 May 19:51:22 19:53:33 14° 302° (WNW) 19:55:42 437.445
LilacSat-2 23 May 20:00:32 20:01:38 11° 272° (W) 20:02:43 437.200
AO-73 23 May 20:11:29 20:14:52 24° 65° (ENE) 20:18:19 145.935
CUTE 1.7 + AOD 2 23 May 20:17:56 20:22:05 50° 261° (W) 20:26:17 437.475
CUBEBUG 2 23 May 20:19:48 20:23:56 84° 79° (ENE) 20:28:12 437.445
ZACube-1 23 May 20:22:53 20:26:40 33° 68° (ENE) 20:30:31 437.345
STARS 23 May 20:32:42 20:34:11 12° 303° (WNW) 20:35:40 437.465
UWE-3 23 May 20:37:24 20:41:35 79° 73° (ENE) 20:45:51 435.000/436.395/437.385
STRAND 1 23 May 20:43:00 20:48:07 62° 102° (ESE) 20:53:12 437.568
PCSat 23 May 20:48:24 20:53:46 66° 118° (ESE) 20:59:10 145.827
AAUSAT CUBESAT 2 23 May 20:48:24 20:52:35 73° 257° (WSW) 20:56:48 437.432
EO-88 23 May 21:00:59 21:02:27 12° 61° (ENE) 21:03:56 145.990 - 145.960
XW-2A 23 May 21:01:26 21:03:16 14° 269° (W) 21:05:06 145.665 - 145.685
SEEDS 23 May 21:15:07 21:18:19 20° 268° (W) 21:21:31 437.485
Oscar 11 23 May 21:24:00 21:28:20 78° 258° (WSW) 21:32:43 .
HO-68 23 May 21:35:11 21:40:08 20° 271° (W) 21:45:09 435.675
DELFI C3 23 May 21:38:33 21:42:21 43° 71° (ENE) 21:46:10 145.870
AO-73 23 May 21:47:02 21:50:55 36° 263° (W) 21:54:55 145.935
ZACube-1 23 May 21:59:30 22:02:59 25° 266° (W) 22:06:35 437.345
M-CUBED/EXP-1 PRIME 23 May 22:15:24 22:18:48 83° 291° (WNW) 22:22:03 437.505
UNISAT 6 23 May 22:16:58 22:19:47 16° 90° (E) 22:22:37 437.425
UWE-3 23 May 22:17:50 22:18:39 10° 274° (W) 22:19:29 435.000/436.395/437.385
ISS 23 May 22:22:27 22:25:17 27° 141° (SE) 22:28:09 437.550
STRAND 1 23 May 22:23:04 22:26:51 21° 300° (WNW) 22:30:39 437.568
Tancredo 1 23 May 22:23:18 22:26:10 37° 145° (SE) 22:29:04 437.200
EO-88 23 May 22:32:02 22:35:39 62° 260° (W) 22:39:19 145.990 - 145.960
PCSat 23 May 22:33:01 22:37:37 27° 319° (NW) 22:42:13 145.827
ESTCUBE 1 23 May 22:45:12 22:48:33 21° 62° (ENE) 22:51:54 437.505/2401.250
FO-29 23 May 22:56:13 23:02:07 43° 98° (E) 23:08:42 435.910
SO-50 23 May 22:57:43 23:00:30 16° 111° (ESE) 23:03:15 436.795
DELFI C3 23 May 23:14:37 23:17:21 18° 268° (W) 23:20:05 145.870
TIGRISAT 23 May 23:21:35 23:26:06 62° 101° (E) 23:30:42 435.000
PRISM 23 May 23:25:19 23:29:25 89° 289° (WNW) 23:33:28 437.425
LO-87 23 May 23:26:19 23:29:52 79° 76° (ENE) 23:33:25 145.935 - 145.965
UNISAT 6 23 May 23:52:22 23:56:53 63° 287° (WNW) 00:01:27 437.425
VELOX 1 23 May 23:55:02 23:58:46 27° 65° (ENE) 00:02:31 145.980
ISS 23 May 23:58:21 00:01:37 61° 339° (NNW) 00:04:53 437.550
Tancredo 1 23 May 23:58:56 00:01:55 46° 343° (NNW) 00:04:55 437.200
SPROUT 24 May 00:13:55 00:17:51 39° 69° (ENE) 00:21:48 437.525
NANOSAT C BR1 24 May 00:14:20 00:17:02 16° 91° (E) 00:19:43 145.865
POLYITAN 1 24 May 00:15:27 00:18:28 18° 92° (E) 00:21:28 437.675
ESTCUBE 1 24 May 00:20:36 00:25:01 51° 260° (W) 00:29:28 437.505/2401.250
PCSat 24 May 00:22:30 00:23:00 10° 344° (NNW) 00:23:29 145.827
QB50P2 24 May 00:23:35 00:27:04 24° 94° (E) 00:30:32 145.880/145.840
DUCHIFAT 1 24 May 00:26:33 00:29:40 20° 92° (E) 00:32:45 145.980
YUBILEINY 24 May 00:28:59 00:34:11 18° 74° (ENE) 00:39:24 435.215
SO-50 24 May 00:35:51 00:40:25 74° 308° (NW) 00:44:59 436.795
UKube-1 24 May 00:40:47 00:44:06 22° 63° (ENE) 00:47:25 .
DX 1 24 May 00:41:10 00:44:58 30° 66° (ENE) 00:48:47 434.975-435.025
FO-29 24 May 00:41:32 00:47:08 39° 294° (WNW) 00:53:24 435.910
AIST 2D 24 May 00:56:55 01:00:30 74° 283° (WNW) 01:04:03 435.315
BUGSAT 1 24 May 00:58:41 01:00:47 14° 90° (E) 01:02:52 437.445
TIGRISAT 24 May 00:59:20 01:02:21 18° 298° (WNW) 01:05:25 435.000
EO-79 24 May 01:01:27 01:05:38 54° 100° (E) 01:09:49 145.935-145.965
PRISM 24 May 01:03:10 01:04:01 11° 303° (WNW) 01:04:52 437.425
50 SAT 24 May 01:04:15 01:07:41 73° 75° (ENE) 01:11:09 437.505
VELOX 1 24 May 01:31:05 01:35:06 34° 263° (W) 01:39:09 145.980
Tancredo 1 24 May 01:35:18 01:38:07 31° 3° (N) 01:40:56 437.200
ISS 24 May 01:35:27 01:38:29 33° 359° (N) 01:41:32 437.550
ITUPSAT 1 24 May 01:39:28 01:40:29 11° 54° (NE) 01:41:31 437.325
NANOSAT C BR1 24 May 01:48:55 01:53:03 53° 288° (WNW) 01:57:11 145.865
POLYITAN 1 24 May 01:50:23 01:54:30 47° 289° (WNW) 01:58:36 437.675
SPROUT 24 May 01:50:37 01:53:54 22° 267° (W) 01:57:12 437.525
QB50P2 24 May 01:59:02 02:02:56 36° 291° (WNW) 02:06:49 145.880/145.840
DUCHIFAT 1 24 May 02:01:30 02:05:32 43° 290° (WNW) 02:09:32 145.980
Oscar 19 24 May 02:09:52 02:14:21 29° 95° (E) 02:18:48 437.125/150
BEESAT 24 May 02:12:16 02:15:47 21° 61° (ENE) 02:19:19 436.000
UKube-1 24 May 02:15:46 02:19:53 42° 261° (W) 02:24:00 .
DX 1 24 May 02:17:18 02:21:07 30° 264° (W) 02:24:57 434.975-435.025
SO-50 24 May 02:18:38 02:21:39 17° 330° (NNW) 02:24:40 436.795
YUBILEINY 24 May 02:20:47 02:29:28 79° 96° (E) 02:38:16 435.215
MOZHAYETS 4 24 May 02:23:43 02:26:12 15° 58° (ENE) 02:28:41
BUGSAT 1 24 May 02:32:27 02:36:31 61° 287° (WNW) 02:40:36 437.445
RS-15 24 May 02:32:59 02:43:49 41° 107° (ESE) 02:54:51 29.354- 29.394
EO-79 24 May 02:38:12 02:41:01 17° 298° (WNW) 02:43:50 145.935-145.965
Gurwin Techsat 1B 24 May 03:01:08 03:06:20 51° 100° (E) 03:11:28 435.225
Tancredo 1 24 May 03:11:08 03:14:13 68° 23° (NNE) 03:17:17 437.200
ISS 24 May 03:12:09 03:15:24 54° 19° (NNE) 03:18:38 437.550
ITUPSAT 1 24 May 03:12:41 03:17:25 69° 72° (ENE) 03:22:12 437.325
KKS-1 24 May 03:39:52 03:42:07 14° 58° (ENE) 03:44:23 437.445
BEESAT 24 May 03:48:31 03:53:11 55° 259° (W) 03:57:53 436.000
Oscar 19 24 May 03:48:57 03:53:47 41° 293° (WNW) 03:58:35 437.125/150
PCSat 24 May 03:50:33 03:54:49 23° 37° (NE) 03:59:03 145.827
MOZHAYETS 4 24 May 03:58:08 04:02:44 79° 257° (WSW) 04:07:24
STARS 24 May 04:19:14 04:21:44 15° 59° (ENE) 04:24:13 437.465
YUBILEINY 24 May 04:20:14 04:27:19 27° 299° (WNW) 04:34:30 435.215
AO-7 24 May 04:22:09 04:29:57 41° 98° (E) 04:37:43 .
CUBESAT XI-V 24 May 04:35:52 04:40:25 50° 71° (ENE) 04:44:59 437.345
Gurwin Techsat 1B 24 May 04:41:39 04:45:59 26° 298° (WNW) 04:50:18 435.225
ITAMSAT 1 24 May 04:43:21 04:48:32 63° 102° (ESE) 04:53:42 435.822/435.867
RS-15 24 May 04:43:22 04:55:35 73° 312° (NW) 05:08:01 29.354- 29.394
Tancredo 1 24 May 04:47:20 04:49:44 21° 221° (SW) 04:52:07 437.200
ISS 24 May 04:48:49 04:51:47 32° 217° (SW) 04:54:44 437.550
ITUPSAT 1 24 May 04:52:57 04:55:44 15° 271° (W) 04:58:33 437.325
KKS-1 24 May 05:13:39 05:18:05 78° 255° (WSW) 05:22:32 437.445
O/OREOS (USA 219) 24 May 05:25:33 05:30:08 74° 112° (ESE) 05:34:44 437.305
PCSat 24 May 05:33:26 05:38:55 85° 239° (WSW) 05:44:21 145.827
SO-50 24 May 05:45:12 05:46:41 11° 20° (NNE) 05:48:11 436.795
STARS 24 May 05:53:13 05:57:33 69° 257° (WSW) 06:01:55 437.465
BEESAT 3 24 May 05:55:12 05:57:11 13° 110° (ESE) 05:59:11 437.485
AO-85 24 May 06:14:07 06:18:13 63° 123° (ESE) 06:22:09 145.980
CUBESAT XI-V 24 May 06:14:32 06:18:03 21° 268° (W) 06:21:36 437.345
AO-7 24 May 06:14:53 06:22:54 54° 299° (WNW) 06:30:56 .
CUTE-I 24 May 06:18:46 06:21:09 13° 87° (E) 06:23:32 437.470
ITAMSAT 1 24 May 06:23:43 06:27:33 21° 301° (WNW) 06:31:24 435.822/435.867
STRAND 1 24 May 06:24:48 06:28:14 19° 58° (ENE) 06:31:40 437.568
DOVE 4 24 May 06:28:52 06:32:22 25° 95° (E) 06:35:53 437.250
XW-2D 24 May 06:32:28 06:34:52 16° 91° (E) 06:37:17 145.860 - 145.880
XW-2B 24 May 06:40:03 06:42:48 18° 92° (E) 06:45:32 145.730 - 145.750
XW-2C 24 May 06:53:09 06:56:26 26° 94° (E) 06:59:42 145.795 - 145.815
XW-2F 24 May 06:54:28 06:57:42 25° 94° (E) 07:00:56 145.980 - 146.000
RS-15 24 May 06:59:26 07:10:37 37° 342° (NNW) 07:21:47 29.354- 29.394
NUDT-PHONESAT 24 May 07:02:46 07:05:58 25° 95° (E) 07:09:07 437.300
BEESAT 2 24 May 07:04:06 07:07:25 26° 115° (ESE) 07:10:47 435.950
KAITUO 1B 24 May 07:07:01 07:10:22 29° 95° (E) 07:13:42 145.475/437.950
O/OREOS (USA 219) 24 May 07:07:02 07:10:06 17° 313° (NW) 07:13:10 437.305
HO-68 24 May 07:11:14 07:14:38 14° 85° (E) 07:18:01 435.675
PCSat 24 May 07:18:51 07:21:28 14° 257° (WSW) 07:24:05 145.827
SO-50 24 May 07:24:16 07:28:27 36° 43° (NE) 07:32:38 436.795
LilacSat-2 24 May 07:27:30 07:31:24 67° 101° (ESE) 07:35:15 437.200
M-CUBED/EXP-1 PRIME 24 May 07:29:54 07:33:10 22° 60° (ENE) 07:36:16 437.505
BEESAT 3 24 May 07:30:16 07:34:13 70° 308° (NW) 07:38:16 437.485
AO-85 24 May 07:55:55 07:58:57 20° 323° (NW) 08:01:55 145.980
CUTE-I 24 May 07:56:35 08:01:57 88° 105° (ESE) 08:07:18 437.470
CUTE 1.7 + AOD 2 24 May 08:00:14 08:03:38 23° 93° (E) 08:07:02 437.475
STRAND 1 24 May 08:01:47 08:06:51 71° 257° (WSW) 08:11:59 437.568
XW-2D 24 May 08:05:36 08:09:18 45° 288° (WNW) 08:12:59 145.860 - 145.880
DOVE 4 24 May 08:06:27 08:10:06 31° 292° (WNW) 08:13:48 437.250
CUBEBUG 2 24 May 08:08:19 08:11:04 16° 90° (E) 08:13:49 437.445
AO-7 24 May 08:09:22 08:13:52 16° 322° (NW) 08:18:23 .
XW-2B 24 May 08:13:32 08:17:09 38° 290° (WNW) 08:20:44 145.730 - 145.750
XW-2A 24 May 08:18:44 08:21:45 27° 96° (E) 08:24:43 145.665 - 145.685
UWE-3 24 May 08:25:02 08:27:31 14° 89° (E) 08:30:01 435.000/436.395/437.385
XW-2C 24 May 08:27:17 08:30:36 27° 292° (WNW) 08:33:53 145.795 - 145.815
XW-2F 24 May 08:28:30 08:31:49 28° 292° (WNW) 08:35:06 145.980 - 146.000
AAUSAT CUBESAT 2 24 May 08:28:54 08:31:12 14° 89° (E) 08:33:29 437.432
NUDT-PHONESAT 24 May 08:36:37 08:39:50 27° 292° (WNW) 08:43:01 437.300
KAITUO 1B 24 May 08:41:10 08:44:17 24° 293° (WNW) 08:47:23 145.475/437.950
BEESAT 2 24 May 08:41:15 08:45:01 39° 314° (NW) 08:48:51 435.950
PRISM 24 May 08:45:00 08:46:20 11° 58° (ENE) 08:47:40 437.425
SEEDS 24 May 08:54:34 08:58:45 54° 100° (E) 09:02:52 437.485
HO-68 24 May 08:56:24 09:03:38 72° 104° (ESE) 09:10:48 435.675
M-CUBED/EXP-1 PRIME 24 May 09:03:21 09:07:25 41° 255° (WSW) 09:11:14 437.505
LilacSat-2 24 May 09:03:27 09:05:09 13° 299° (WNW) 09:06:51 437.200
SO-50 24 May 09:04:48 09:08:54 35° 242° (WSW) 09:13:01 436.795
Oscar 11 24 May 09:09:21 09:12:04 16° 90° (E) 09:14:48 .
BEESAT 3 24 May 09:10:19 09:12:33 14° 329° (NNW) 09:14:47 437.485
FO-29 24 May 09:13:54 09:17:46 22° 59° (ENE) 09:21:44 435.910
RS-15 24 May 09:16:17 09:27:28 37° 16° (NNE) 09:38:20 29.354- 29.394
UNISAT 6 24 May 09:18:47 09:21:48 19° 62° (ENE) 09:24:52 437.425
NO-84 24 May 09:31:25 09:34:29 19° 129° (SE) 09:37:30 435.350 FM
AO-73 24 May 09:31:26 09:35:34 34° 96° (E) 09:39:44 145.935
CUTE 1.7 + AOD 2 24 May 09:35:38 09:39:35 37° 291° (WNW) 09:43:31 437.475
CUTE-I 24 May 09:38:07 09:41:17 16° 304° (NW) 09:44:28 437.470
ZACube-1 24 May 09:43:31 09:47:56 49° 99° (E) 09:52:22 437.345
CUBEBUG 2 24 May 09:43:34 09:48:03 64° 287° (WNW) 09:52:39 437.445
XW-2A 24 May 09:51:44 09:54:21 21° 293° (WNW) 09:56:59 145.665 - 145.685
UWE-3 24 May 09:59:53 10:04:25 70° 286° (WNW) 10:09:01 435.000/436.395/437.385
AAUSAT CUBESAT 2 24 May 10:02:57 10:07:02 57° 287° (WNW) 10:11:04 437.432
PRISM 24 May 10:16:49 10:20:58 87° 259° (W) 10:25:08 437.425
TIGRISAT 24 May 10:22:56 10:27:11 74° 73° (ENE) 10:31:31 435.000
BEESAT 2 24 May 10:23:21 10:23:54 10° 336° (NNW) 10:24:26 435.950
SEEDS 24 May 10:31:16 10:34:01 17° 298° (WNW) 10:36:45 437.485
YUBILEINY 24 May 10:33:59 10:36:10 11° 44° (NE) 10:38:20 435.215
Oscar 11 24 May 10:44:17 10:48:34 56° 287° (WNW) 10:52:49 .
HO-68 24 May 10:44:53 10:50:46 28° 305° (NW) 10:56:39 435.675
DELFI C3 24 May 10:47:09 10:50:59 46° 99° (E) 10:54:46 145.870
UNISAT 6 24 May 10:54:01 10:58:09 49° 261° (W) 11:02:23 437.425
FO-29 24 May 10:57:25 11:02:30 56° 260° (W) 11:07:43 435.910
NO-84 24 May 11:07:21 11:11:43 88° 325° (NW) 11:15:52 435.350 FM
AO-73 24 May 11:07:49 11:11:41 29° 294° (WNW) 11:15:36 145.935
NANOSAT C BR1 24 May 11:09:14 11:12:06 18° 62° (ENE) 11:15:00 145.865
POLYITAN 1 24 May 11:10:49 11:13:56 21° 64° (ENE) 11:17:04 437.675
QB50P2 24 May 11:18:51 11:22:22 26° 66° (ENE) 11:25:53 145.880/145.840
ZACube-1 24 May 11:20:31 11:23:54 21° 296° (WNW) 11:27:18 437.345
DUCHIFAT 1 24 May 11:21:07 11:24:17 21° 64° (ENE) 11:27:28 145.980
RS-15 24 May 11:30:13 11:42:34 71° 47° (NE) 11:54:19 29.354- 29.394
EO-88 24 May 11:31:25 11:35:08 71° 284° (WNW) 11:38:47 145.990 - 145.960
AIST 2D 24 May 11:33:37 11:37:05 58° 74° (ENE) 11:40:35 435.315
BUGSAT 1 24 May 11:51:27 11:53:40 15° 61° (ENE) 11:55:53 437.445
EO-79 24 May 11:56:17 12:00:23 57° 73° (ENE) 12:04:31 145.935-145.965
TIGRISAT 24 May 12:02:51 12:04:26 12° 272° (W) 12:06:02 435.000
ESTCUBE 1 24 May 12:10:18 12:14:09 27° 94° (E) 12:17:58 437.505/2401.250
DELFI C3 24 May 12:22:50 12:25:25 17° 297° (WNW) 12:27:59 145.870
LO-87 24 May 12:23:39 12:27:12 65° 101° (ESE) 12:30:43 145.935 - 145.965
YUBILEINY 24 May 12:27:24 12:35:50 46° 71° (ENE) 12:44:14 435.215
NANOSAT C BR1 24 May 12:43:25 12:47:28 49° 260° (W) 12:51:34 145.865
POLYITAN 1 24 May 12:45:28 12:49:27 42° 261° (W) 12:53:29 437.675
NO-84 24 May 12:45:56 12:49:43 31° 344° (NNW) 12:53:18 435.350 FM
Gurwin Techsat 1B 24 May 12:47:39 12:51:07 18° 57° (ENE) 12:54:35 435.225
QB50P2 24 May 12:54:16 12:58:02 32° 264° (W) 13:01:51 145.880/145.840
DUCHIFAT 1 24 May 12:55:48 12:59:43 40° 262° (W) 13:03:41 145.980
AO-85 24 May 13:02:31 13:05:31 20° 37° (NE) 13:08:35 145.980
AIST 2D 24 May 13:10:08 13:10:41 10° 272° (W) 13:11:13 435.315
VELOX 1 24 May 13:17:43 13:21:45 34° 97° (E) 13:25:44 145.980
BUGSAT 1 24 May 13:24:37 13:28:34 59° 259° (W) 13:32:33 437.445
Oscar 19 24 May 13:29:13 13:34:18 57° 70° (ENE) 13:39:25 437.125/150
SPROUT 24 May 13:32:00 13:36:10 50° 99° (E) 13:40:19 437.525
EO-79 24 May 13:34:09 13:36:31 15° 270° (W) 13:38:54 145.935-145.965
AO-7 24 May 13:35:12 13:40:49 21° 44° (NE) 13:46:27 .
BEESAT 2 24 May 13:42:24 13:43:28 11° 25° (NNE) 13:44:32 435.950
RS-15 24 May 13:43:26 13:54:20 41° 252° (WSW) 14:04:48 29.354- 29.394
ESTCUBE 1 24 May 13:46:53 13:51:00 35° 292° (WNW) 13:55:05 437.505/2401.250
O/OREOS (USA 219) 24 May 13:53:50 13:57:50 30° 54° (NE) 14:01:48 437.305
50 SAT 24 May 13:57:12 14:00:32 47° 100° (E) 14:03:48 437.505
LO-87 24 May 13:59:10 14:00:08 11° 299° (WNW) 14:01:07 145.935 - 145.965
UKube-1 24 May 13:59:57 14:03:29 24° 95° (E) 14:07:00 .
DX 1 24 May 14:01:54 14:05:55 36° 98° (E) 14:09:54 434.975-435.025
BEESAT 3 24 May 14:07:17 14:10:40 25° 40° (NE) 14:14:02 437.485
YUBILEINY 24 May 14:24:25 14:32:38 46° 273° (W) 14:40:52 435.215
NO-84 24 May 14:24:46 14:28:10 25° 6° (N) 14:31:22 435.350 FM
Gurwin Techsat 1B 24 May 14:25:07 14:30:26 79° 256° (WSW) 14:35:47 435.225
ITAMSAT 1 24 May 14:26:45 14:30:29 20° 59° (ENE) 14:34:12 435.822/435.867
AO-85 24 May 14:42:16 14:46:15 64° 237° (WSW) 14:50:25 145.980
VELOX 1 24 May 14:54:24 14:58:05 27° 295° (WNW) 15:01:44 145.980
SPROUT 24 May 15:08:46 15:11:44 19° 297° (WNW) 15:14:42 437.525
Oscar 19 24 May 15:10:04 15:13:58 21° 268° (W) 15:17:54 437.125/150
ITUPSAT 1 24 May 15:11:40 15:14:14 14° 89° (E) 15:16:46 437.325
BEESAT 2 24 May 15:18:23 15:22:18 42° 47° (NE) 15:26:09 435.950
AO-7 24 May 15:24:01 15:32:13 71° 66° (ENE) 15:40:30 .
50 SAT 24 May 15:31:26 15:33:00 13° 297° (WNW) 15:34:36 437.505
O/OREOS (USA 219) 24 May 15:33:10 15:37:16 34° 254° (WSW) 15:41:20 437.305
UKube-1 24 May 15:35:39 15:39:36 36° 292° (WNW) 15:43:31 .
DX 1 24 May 15:38:23 15:41:57 25° 295° (WNW) 15:45:30 434.975-435.025
BEESAT 3 24 May 15:44:35 15:48:27 46° 239° (WSW) 15:52:15 437.485
BEESAT 24 May 15:45:44 15:49:57 30° 96° (E) 15:54:09 436.000
MOZHAYETS 4 24 May 15:50:54 15:54:19 20° 91° (E) 15:57:44
NO-84 24 May 16:02:37 16:06:25 52° 27° (NNE) 16:09:52 435.350 FM
ITAMSAT 1 24 May 16:04:20 16:09:28 65° 258° (WSW) 16:14:38 435.822/435.867
Gurwin Techsat 1B 24 May 16:09:43 16:11:14 11° 274° (W) 16:12:46 435.225
ITUPSAT 1 24 May 16:47:47 16:52:37 75° 287° (WNW) 16:57:25 437.325
BEESAT 2 24 May 16:56:34 16:59:51 24° 245° (WSW) 17:03:06 435.950
KKS-1 24 May 17:02:42 17:05:27 16° 91° (E) 17:08:11 437.445
XW-2D 24 May 17:17:22 17:19:07 13° 61° (ENE) 17:20:52 145.860 - 145.880
AO-7 24 May 17:18:41 17:25:38 29° 266° (W) 17:32:41 .
BEESAT 24 May 17:23:23 17:27:45 36° 294° (WNW) 17:32:06 436.000
XW-2B 24 May 17:24:44 17:26:55 15° 62° (ENE) 17:29:06 145.730 - 145.750
MOZHAYETS 4 24 May 17:27:15 17:31:45 50° 290° (WNW) 17:36:14
DOVE 4 24 May 17:36:41 17:40:58 39° 70° (ENE) 17:45:03 437.250
XW-2C 24 May 17:37:31 17:40:20 20° 65° (ENE) 17:43:11 145.795 - 145.815
XW-2F 24 May 17:38:26 17:41:12 20° 65° (ENE) 17:44:00 145.980 - 146.000
STARS 24 May 17:40:26 17:43:21 17° 91° (E) 17:46:15 437.465
NO-84 24 May 17:40:38 17:43:45 26° 228° (SW) 17:46:39 435.350 FM
CUTE-I 24 May 17:42:29 17:47:00 30° 63° (ENE) 17:51:33 437.470
HO-68 24 May 17:43:44 17:48:07 18° 48° (NE) 17:52:31 435.675
NUDT-PHONESAT 24 May 17:45:14 17:47:52 19° 65° (ENE) 17:50:32 437.300
KAITUO 1B 24 May 17:50:01 17:52:56 21° 66° (ENE) 17:55:51 145.475/437.950
CUBESAT XI-V 24 May 18:06:28 18:11:10 82° 103° (ESE) 18:15:49 437.345
LilacSat-2 24 May 18:11:48 18:15:30 48° 72° (ENE) 18:19:15 437.200
ITUPSAT 1 24 May 18:27:57 18:29:36 12° 305° (NW) 18:31:15 437.325
KKS-1 24 May 18:38:01 18:42:23 58° 288° (WNW) 18:46:44 437.445
XW-2D 24 May 18:49:02 18:52:48 63° 259° (W) 18:56:38 145.860 - 145.880
XW-2A 24 May 18:53:35 18:55:40 16° 65° (ENE) 18:57:46 145.665 - 145.685
CUTE 1.7 + AOD 2 24 May 18:55:33 18:59:00 24° 65° (ENE) 19:02:27 437.475
